Weather Roundup
Issued by NWS Chicago, IL

Home | Current Version | Previous Version | Text Only | Print | Product List | Glossary On
Versions: 1 2 3 4 5 6 7 8 9 10 11 12 13 14 15 16 17 18 19 20 21 22 23 24 25 26 27 28 29 30 31 32 33 34 35 36 37 38 39 40 41 42 43 44 45 46 47 48 49 50
000
NZUS59 KLOT 010410
HRRLOT

CHICAGO AREA WEATHER ROUNDUP
NATIONAL WEATHER SERVICE CHICAGO/ROMEOVILLE IL
1100 PM CDT THU JUL 31 2014

NOTE: "FAIR" INDICATES FEW OR NO CLOUDS BELOW 12,000 FEET WITH NO
SIGNIFICANT WEATHER AND/OR OBSTRUCTIONS TO VISIBILITY.

* THESE STATIONS ARE NOT UNDER NWS QUALITY CONTROL. THEY ALSO MAY NOT
  REPORT WEATHER SUCH AS PRECIPITATION OR FOG.

ILZ005-006-012>014-019>023-010500-
NORTHEAST ILLINOIS

CITY           SKY/WX    TMP DP  RH WIND       PRES   REMARKS
OHARE          CLEAR     71  57  61 SW5       30.04S
MIDWAY         CLEAR     74  62  66 SW7       30.04S
AURORA         CLEAR     62  59  90 CALM      30.06S
LANSING*       MOCLDY    66  62  85 S5        30.05S
JOLIET*        CLEAR     63  61  91 CALM      30.06S
WAUKEGAN       CLEAR     66  58  75 CALM      30.02S
DUPAGE AIRPORT CLEAR     65  59  81 SW3       30.04F
WHEELING       CLEAR     73  58  59 SW3       30.05S
KANKAKEE*      CLEAR     66  62  86 SW3       30.07S
MORRIS*        CLEAR     66  65  96 SW3       30.05S
LEWIS AIRPORT* CLEAR     66  60  80 SW5       30.06R
NORTHERLY IS     N/A     75  59  57 S3          N/A
$$

WIZ051-052-058>065-066-070>072-010500-
SOUTHEAST WISCONSIN

CITY           SKY/WX    TMP DP  RH WIND       PRES   REMARKS
MILWAUKEE      CLEAR     73  57  57 W8        30.01S
KENOSHA*       CLEAR     67  59  75 SW5       30.03S
RACINE*        CLEAR     67  58  72 SW6       30.03S
BURLINGTON     CLEAR     60  57  91 SW3       30.03R
WAUKESHA       CLEAR     63  55  77 SW3       30.03S
WEST BEND      PTCLDY    63  57  82 CALM      30.01S
$$

INZ001>003-010>013-019-020-010500-
NORTHWEST INDIANA

CITY           SKY/WX    TMP DP  RH WIND       PRES   REMARKS
GARY*          CLEAR     67  64  90 SW3       30.05S
MICHIGAN CITY* NOT AVBL
RENSSELAER*    NOT AVBL
VALPARAISO     MOCLDY    67  61  81 SW5       30.06S
$$

LMZ740>746-010500-
SOUTHERN LAKE MICHIGAN

STATION/POSITION TIME  SKY/WX   TEMP WIND        PRES    VSBY
                                AIR  DIR/SP/G
                 (UTC)          (F)  (DEG/KT/KT) (MB)    (MI)
HARRISON CRIB    0400            76  250/  9/ 10   N/A
BURNHAM HARBOR   0400            74  220/  4/  6   N/A
CALUMET HARBOR   0400            74  230/  4/  6 1016.2S
BURNS HARBOR     NOT AVBL
MICHIGAN CITY    0400            72  190/  9/ 11   N/A
$$

ABBREVIATIONS USED IN REMARKS
   TC - TEMPERATURE IN CELSIUS
  WCI - WIND CHILL INDEX
   HX - HEAT INDEX
  VSB - VISIBILITY
$$



USA.gov is the U.S. government's official web portal to all federal, state and local government web resources and services.